Weather History for KFKA - October, 2012

Change the Weather History Date:

Thursday, October 4, 2012

  Actual Average (KRST) Record (KRST)
Temperature  
Mean Temperature 52 °F 53 °F  
Max Temperature 60 °F 64 °F 84 °F (2005)
Min Temperature 42 °F 42 °F 20 °F (1935)
Degree Days  
Heating Degree Days 13 12  
Month to date heating degree days 47  
Since 1 July heating degree days 262  
Cooling Degree Days 0 1  
Month to date cooling degree days 4  
Year to date cooling degree days 583  
Growing Degree Days 2 (Base 50)    
Moisture  
Dew Point 35 °F    
Average Humidity 51    
Maximum Humidity 65    
Minimum Humidity 36    
Precipitation  
Precipitation 0.00 in 0.09 in 1.53 in (2002)
Month to date precipitation 0.39  
Year to date precipitation 28.03  
Snow  
Snow 0.00 in 0.00 in 0.00 in (2012)
Month to date snowfall 0.0  
Since 1 July snowfall 0.0  
Snow Depth -    
Sea Level Pressure  
Sea Level Pressure 30.03 in    
Wind  
Wind Speed 13 mph (West)    
Max Wind Speed 26 mph    
Max Gust Speed 37 mph    
Visibility 10 miles    
Events Thunderstorm    
T = Trace of Precipitation, MM = Missing Value Source: NWS Daily Summary

Daily Weather History Graph

Daily Weather History Graph

Search for Another Location

Airport or City:

Trip Planner

Search our weather history database for the weather conditions in past years. The results will help you decide how hot, cold, wet, or windy it might be!

Date:

Astronomy

Oct. 04, 2012 Rise Set
Actual Time 7:10 AM CDT 6:43 PM CDT
Civil Twilight 6:41 AM CDT 7:11 PM CDT
Nautical Twilight 6:08 AM CDT 7:45 PM CDT
Astronomical Twilight 5:34 AM CDT 8:18 PM CDT
Moon 9:10 PM CDT (10/4) 11:36 AM CDT (10/4)
Length of Visible Light 12h 30m
Length of Day
11h 33m
Waning Gibbous, 82% of the Moon is Illuminated
Oct 4
Waning Gibbous
Oct 8
Last Quarter
Oct 15
New
Oct 21
First Quarter
Oct 29
Full

Hourly Weather History & Observations

Time (CDT) Temp. Windchill Dew Point Humidity Pressure Visibility Wind Dir Wind Speed Gust Speed Precip Events Conditions
12:10 AM 60.8 °F - 44.1 °F 54% 29.94 in 10.0 mi South 8.1 mph - N/A   Clear
12:30 AM 59.4 °F - 44.1 °F 57% 29.94 in 10.0 mi South 5.8 mph - N/A   Clear
12:50 AM 59.2 °F - 44.1 °F 57% 29.93 in 10.0 mi South 6.9 mph - N/A   Clear
1:10 AM 58.8 °F - 44.1 °F 58% 29.92 in 10.0 mi South 6.9 mph - N/A   Clear
1:30 AM 58.5 °F - 44.2 °F 59% 29.92 in 10.0 mi South 5.8 mph - N/A   Clear
1:50 AM 57.9 °F - 44.6 °F 61% 29.92 in 10.0 mi South 4.6 mph - N/A   Clear
2:10 AM 57.9 °F - 45.0 °F 62% 29.91 in 10.0 mi South 8.1 mph - N/A   Clear
2:30 AM 58.1 °F - 45.1 °F 62% 29.91 in 10.0 mi South 8.1 mph - N/A   Clear
2:50 AM 58.1 °F - 45.0 °F 62% 29.91 in 10.0 mi South 8.1 mph - N/A   Clear
3:10 AM 59.2 °F - 44.6 °F 58% 29.90 in 10.0 mi South 8.1 mph - N/A   Clear
3:30 AM 59.2 °F - 44.2 °F 58% 29.89 in 10.0 mi SSW 12.7 mph - N/A   Clear
3:50 AM 59.2 °F - 44.1 °F 57% 29.88 in 10.0 mi South 9.2 mph - N/A   Clear
4:10 AM 59.2 °F - 43.7 °F 57% 29.89 in 10.0 mi SSW 11.5 mph - N/A   Clear
4:30 AM 59.9 °F - 43.3 °F 54% 29.89 in 10.0 mi SSW 10.4 mph 19.6 mph N/A   Clear
4:50 AM 59.2 °F - 43.3 °F 56% 29.88 in 10.0 mi SSW 9.2 mph - N/A   Clear
5:10 AM 58.5 °F - 43.2 °F 57% 29.90 in 10.0 mi SW 12.7 mph - N/A   Clear
5:30 AM 57.9 °F - 42.8 °F 57% 29.90 in 10.0 mi SW 10.4 mph - N/A   Clear
5:50 AM 57.2 °F - 41.4 °F 55% 29.91 in 10.0 mi West 18.4 mph - N/A   Clear
6:10 AM 54.7 °F - 39.2 °F 56% 29.93 in 7.0 mi West 19.6 mph 25.3 mph N/A   Clear
6:30 AM 53.2 °F - 39.7 °F 60% 29.93 in 10.0 mi West 13.8 mph 20.7 mph N/A   Clear
6:50 AM 52.3 °F - 40.3 °F 64% 29.94 in 10.0 mi West 17.3 mph 24.2 mph N/A   Clear
7:10 AM 51.6 °F - 40.1 °F 65% 29.95 in 10.0 mi West 15.0 mph 21.9 mph N/A   Clear
7:35 AM 50.9 °F - 39.2 °F 64% 29.96 in 10.0 mi West 16.1 mph 24.2 mph N/A   Clear
7:51 AM 50.9 °F - 38.7 °F 63% 29.97 in 10.0 mi WNW 19.6 mph 26.5 mph N/A   Clear
8:10 AM 50.4 °F - 38.3 °F 63% 29.98 in 10.0 mi West 16.1 mph 26.5 mph N/A   Clear
8:30 AM 50.2 °F - 38.5 °F 64% 29.98 in 10.0 mi WNW 18.4 mph 24.2 mph N/A   Clear
8:50 AM 50.9 °F - 38.3 °F 62% 29.99 in 10.0 mi West 15.0 mph 20.7 mph N/A   Clear
9:10 AM 52.0 °F - 38.1 °F 59% 29.98 in 10.0 mi WNW 18.4 mph 29.9 mph N/A   Mostly Cloudy
9:30 AM 52.0 °F - 37.4 °F 58% 29.99 in 10.0 mi WNW 18.4 mph 27.6 mph N/A   Scattered Clouds
9:50 AM 52.7 °F - 35.8 °F 53% 29.99 in 10.0 mi WNW 18.4 mph 32.2 mph N/A   Clear
10:10 AM 52.7 °F - 35.8 °F 53% 30.01 in 10.0 mi WNW 20.7 mph 29.9 mph N/A   Clear
10:30 AM 52.7 °F - 32.9 °F 47% 30.03 in 10.0 mi West 25.3 mph 33.4 mph N/A   Clear
10:50 AM 52.0 °F - 32.5 °F 48% 30.03 in 10.0 mi WNW 17.3 mph 32.2 mph N/A   Clear
11:31 AM 53.6 °F - 32.0 °F 44% 30.04 in 10.0 mi NW 19.6 mph 27.6 mph N/A   Scattered Clouds
11:50 AM 53.6 °F - 32.2 °F 44% 30.04 in 10.0 mi West 18.4 mph 27.6 mph N/A   Mostly Cloudy
12:10 PM 54.5 °F - 32.0 °F 42% 30.05 in 10.0 mi WNW 18.4 mph 28.8 mph N/A Thunderstorm Scattered Clouds
12:30 PM 55.2 °F - 32.0 °F 41% 30.05 in 10.0 mi WNW 23.0 mph 29.9 mph N/A   Clear
12:50 PM 56.1 °F - 32.2 °F 40% 30.06 in 10.0 mi West 24.2 mph 27.6 mph N/A   Clear
1:10 PM 55.6 °F - 31.8 °F 41% 30.06 in 10.0 mi WNW 25.3 mph 29.9 mph N/A   Clear
1:30 PM 55.9 °F - 31.3 °F 39% 30.07 in 10.0 mi WNW 25.3 mph 31.1 mph N/A   Clear
1:50 PM 55.6 °F - 30.9 °F 39% 30.07 in 10.0 mi West 21.9 mph 32.2 mph N/A   Clear
2:10 PM 55.9 °F - 31.1 °F 39% 30.07 in 10.0 mi West 24.2 mph 29.9 mph N/A   Clear
2:30 PM 55.8 °F - 30.0 °F 37% 30.08 in 10.0 mi WNW 26.5 mph 31.1 mph N/A   Clear
2:50 PM 55.6 °F - 30.0 °F 38% 30.08 in 10.0 mi WNW 19.6 mph 28.8 mph N/A   Clear
3:10 PM 55.9 °F - 29.8 °F 37% 30.08 in 10.0 mi WNW 20.7 mph 34.5 mph N/A   Clear
3:30 PM 56.1 °F - 29.7 °F 36% 30.09 in 10.0 mi WNW 23.0 mph 28.8 mph N/A   Clear
3:50 PM 55.6 °F - 29.5 °F 37% 30.09 in 10.0 mi WNW 20.7 mph 27.6 mph N/A   Clear
4:11 PM 55.0 °F - 29.3 °F 37% 30.09 in 10.0 mi WNW 23.0 mph 26.5 mph N/A   Clear
4:30 PM 54.1 °F - 28.9 °F 38% 30.10 in 10.0 mi WNW 23.0 mph 28.8 mph N/A   Clear
4:50 PM 53.6 °F - 29.1 °F 39% 30.10 in 10.0 mi NW 20.7 mph 26.5 mph N/A   Clear
5:10 PM 52.7 °F - 28.8 °F 40% 30.11 in 10.0 mi WNW 25.3 mph 29.9 mph N/A   Clear
5:30 PM 51.8 °F - 28.9 °F 41% 30.12 in 10.0 mi NW 20.7 mph 27.6 mph N/A   Clear
5:50 PM 50.9 °F - 29.1 °F 43% 30.13 in 10.0 mi WNW 23.0 mph 26.5 mph N/A   Clear
6:10 PM 50.0 °F - 29.1 °F 45% 30.13 in 10.0 mi WNW 20.7 mph 26.5 mph N/A   Clear
6:30 PM 48.7 °F - 28.8 °F 46% 30.13 in 10.0 mi WNW 16.1 mph 24.2 mph N/A   Clear
6:50 PM 48.0 °F - 28.9 °F 48% 30.14 in 10.0 mi WNW 16.1 mph - N/A   Clear
7:10 PM 47.5 °F - 28.4 °F 48% 30.14 in 10.0 mi WNW 15.0 mph - N/A   Clear
7:30 PM 46.6 °F - 28.8 °F 50% 30.14 in 10.0 mi WNW 11.5 mph 20.7 mph N/A   Clear
8:10 PM 46.0 °F 40.2 °F 27.9 °F 49% 30.16 in 10.0 mi WNW 12.7 mph 19.6 mph N/A   Clear
8:30 PM 45.1 °F 39.9 °F 28.4 °F 52% 30.16 in 10.0 mi West 10.4 mph - N/A   Mostly Cloudy
8:50 PM 44.8 °F 39.9 °F 28.4 °F 53% 30.16 in 10.0 mi West 9.2 mph - N/A   Mostly Cloudy
9:10 PM 45.0 °F 40.1 °F 28.9 °F 53% 30.16 in 10.0 mi WNW 9.2 mph - N/A   Overcast
9:30 PM 46.0 °F 39.3 °F 28.6 °F 51% 30.16 in 10.0 mi NW 16.1 mph - N/A   Overcast
9:50 PM 46.4 °F 38.7 °F 27.7 °F 48% 30.16 in 10.0 mi NW 20.7 mph 36.8 mph N/A   Overcast
10:10 PM 46.0 °F 38.8 °F 27.5 °F 48% 30.16 in 10.0 mi WNW 18.4 mph 27.6 mph N/A   Mostly Cloudy
10:30 PM 45.5 °F 38.3 °F 27.0 °F 48% 30.16 in 10.0 mi NW 17.3 mph 29.9 mph N/A   Scattered Clouds
10:50 PM 44.6 °F 37.8 °F 27.0 °F 50% 30.16 in 10.0 mi NW 15.0 mph 20.7 mph N/A   Clear
11:10 PM 44.6 °F 37.8 °F 27.0 °F 50% 30.17 in 10.0 mi NW 15.0 mph 20.7 mph N/A   Scattered Clouds
11:30 PM 44.1 °F 38.6 °F 27.3 °F 52% 30.16 in 10.0 mi NW 10.4 mph - N/A   Clear
11:50 PM 42.8 °F 37.0 °F 28.0 °F 56% 30.16 in 10.0 mi WNW 10.4 mph - N/A   Clear